STARLINK AM (44270 NORAD) Tracking and Keplerian Element Data

This shows tracking and keplerian element data for the satellite.

Feedback or suggestion? Click here.




ElementValue
Catalog44270
NameSTARLINK AM
Epoch Orbit386
Epoch Day173.88737871
Epoch Year2019
RAAN37.9449
Inclination53.0012
Eccentricity0.000227
Argument of Perigee101.2307
Mean Anonmoly258.8936
Mean Motion15.05462274
Decay Rate1.154E-05
L11 44270U 19029AM 19173.88737871 .00001154 00000-0 98653-4 0 9994
L22 44270 53.0012 37.9449 0002270 101.2307 258.8936 15.05462274 3865

Live tracking and technical data element details for STARLINK AM (NORAD 44270). STARLINK AM can be tracked NOW for your location showing map with azimuth and elevation plus other details from your city location.

Track the satellite on the map from your city or location and see movement details for azimuth, elevation, latitude, longitude, range, height, and movement on the map or in text.







IsCatalogInMostPopularTable: catalog: 44270, numindb: 21
Update: records affected: 1



GetName: 44270 STARLINK AM

Hit Count: updated at: Sun, 21 Jul 2019 16:14:26 GMT